This is the latest recevied weather packets stored in our database for station/object DH5WR-10. If no packets are shown the sender has not sent any weather packets the latest 10 day(s).
| Time | Temp. | Humidity | Pressure | Rain* | Wind** | Luminosity | Snow |
|---|---|---|---|---|---|---|---|
| 1777643538 | 20.56° C | 24% | 1025.3 hPa | - | - | - | - |
| 1777642638 | 20.56° C | 25% | 1025.5 hPa | - | - | - | - |
| 1777641738 | 20.56° C | 25% | 1025.5 hPa | - | - | - | - |
| 1777640838 | 20° C | 24% | 1025.6 hPa | - | - | - | - |
| 1777639938 | 20° C | 25% | 1025.7 hPa | - | - | - | - |
| 1777639037 | 20° C | 24% | 1025.8 hPa | - | - | - | - |
| 1777638137 | 20° C | 24% | 1026 hPa | - | - | - | - |
| 1777637237 | 19.44° C | 24% | 1026.1 hPa | - | - | - | - |
| 1777636337 | 19.44° C | 26% | 1026.1 hPa | - | - | - | - |
| 1777635437 | 18.89° C | 25% | 1026.2 hPa | - | - | - | - |
| 1777634537 | 18.33° C | 25% | 1026.4 hPa | - | - | - | - |
| 1777633637 | 17.22° C | 26% | 1026.7 hPa | - | - | - | - |
| 1777632736 | 18.33° C | 26% | 1026.7 hPa | - | - | - | - |
| 1777631836 | 17.22° C | 27% | 1026.8 hPa | - | - | - | - |
| 1777630936 | 16.67° C | 25% | 1027 hPa | - | - | - | - |
| 1777630036 | 16.67° C | 26% | 1027 hPa | - | - | - | - |
| 1777629136 | 16.11° C | 27% | 1027.1 hPa | - | - | - | - |
| 1777628236 | 15° C | 28% | 1027.2 hPa | - | - | - | - |
| 1777627336 | 15° C | 28% | 1027.3 hPa | - | - | - | - |
| 1777626435 | 14.44° C | 29% | 1027.4 hPa | - | - | - | - |
| 1777625535 | 13.33° C | 30% | 1027.3 hPa | - | - | - | - |
| 1777624635 | 13.89° C | 31% | 1027.4 hPa | - | - | - | - |
| 1777623735 | 13.89° C | 29% | 1027.4 hPa | - | - | - | - |
| 1777622835 | 12.22° C | 33% | 1027.5 hPa | - | - | - | - |
| 1777621935 | 12.22° C | 33% | 1027.5 hPa | - | - | - | - |
* Rain since midnight (hover to see other rain measurements)
** Current wind speed in m/s (hover to see current wind gust speed)